Location: Lansingburgh
(42.7845°N, 73.6696°W)
Time: 18:04:38
(UTC+00:00)

SL-16 R/B - Pass Details

Date: 24 January 2020
Orbit: 841 x 848 km, 71.0° (Epoch: 22 February)

Event Time Altitude Azimuth Distance (km) Brightness Sun altitude
Rises 22:27:28 0° 342° (NNW) 3,417 5.3 -6.0°
Reaches altitude 10° 22:30:12 10° 352° (N) 2,477 4.5 -6.5°
Maximum altitude 22:35:16 33° 55° (NE) 1,403 2.9 -7.4°
Drops below altitude 10° 22:40:19 10° 119° (ESE) 2,460 4.2 -8.2°
Sets 22:43:00 0° 129° (SE) 3,390 5.0 -8.7°
